• In Hungary
  • List of Countries
  • For 7 days
  • Water Temperature
  • Satellite Maps
  • Weather Map
  • News
  • Weather Widgets
  • user-avatar
    Login

    Hourly Weather Burdukovo

    Today, 21 October, Saturday

    Time Temperature Precipitation Wind Pressure Humidity
    00:00 +1°C° 0 mm 1 mps 720 mmHg 64%
    01:00 +1°C° 0 mm 1 mps 720 mmHg 64%
    02:00 +1°C° 0 mm 1 mps 720 mmHg 64%
    03:00 +1°C° 0 mm 1 mps 720 mmHg 64%
    04:00 0°C° 0 mm 1 mps 720 mmHg 63%
    05:00 +1°C° 0.1 mm 1 mps 720 mmHg 64%
    06:00 +1°C° 0.1 mm 1 mps 720 mmHg 64%
    07:00 +1°C° 0 mm 1 mps 721 mmHg 62%
    08:00 +2°C° 0.1 mm 1 mps 721 mmHg 61%
    09:00 +3°C° 0.1 mm 1 mps 721 mmHg 61%
    10:00 +3°C° 0.1 mm 0 mps 721 mmHg 60%
    11:00 +4°C° 0.1 mm 0 mps 721 mmHg 61%
    12:00 +5°C° 0.1 mm 0 mps 721 mmHg 61%
    13:00 +6°C° 0.1 mm 0 mps 721 mmHg 62%
    14:00 +5°C° 0 mm 0 mps 721 mmHg 66%
    15:00 +5°C° 0 mm 0 mps 721 mmHg 70%
    16:00 +5°C° 0 mm 0 mps 721 mmHg 74%
    17:00 +3°C° 0 mm 0 mps 722 mmHg 78%
    18:00 +2°C° 0 mm 0 mps 722 mmHg 83%
    19:00 +1°C° 0 mm 0 mps 722 mmHg 88%
    20:00 +2°C° 0 mm 1 mps 722 mmHg 89%
    21:00 +2°C° 0 mm 1 mps 722 mmHg 89%
    22:00 +1°C° 0 mm 1 mps 722 mmHg 90%
    23:00 +1°C° 0 mm 1 mps 722 mmHg 91%

    Tomorrow, 22 October, Sunday

    Time Temperature Precipitation Wind Pressure Humidity
    00:00 +1°C° 0 mm 1 mps 722 mmHg 91%
    01:00 +1°C° 0 mm 1 mps 722 mmHg 92%
    02:00 +1°C° 0 mm 1 mps 722 mmHg 93%
    03:00 +1°C° 0 mm 1 mps 722 mmHg 93%
    04:00 +1°C° 0 mm 1 mps 722 mmHg 94%
    05:00 -1°C° 0 mm 2 mps 722 mmHg 94%
    06:00 -1°C° 0 mm 2 mps 722 mmHg 93%
    07:00 -1°C° 0 mm 2 mps 722 mmHg 93%
    08:00 +2°C° 0 mm 2 mps 722 mmHg 84%
    09:00 +4°C° 0 mm 2 mps 722 mmHg 75%
    10:00 +6°C° 0 mm 2 mps 722 mmHg 66%
    11:00 +7°C° 0 mm 3 mps 721 mmHg 61%
    12:00 +9°C° 0 mm 3 mps 721 mmHg 57%
    13:00 +10°C° 0 mm 3 mps 720 mmHg 52%
    14:00 +9°C° 0 mm 3 mps 720 mmHg 56%
    15:00 +8°C° 0 mm 2 mps 719 mmHg 60%
    16:00 +7°C° 0 mm 2 mps 719 mmHg 64%
    17:00 +6°C° 0 mm 2 mps 719 mmHg 69%
    18:00 +5°C° 0 mm 2 mps 719 mmHg 73%
    19:00 +3°C° 0 mm 2 mps 719 mmHg 77%
    20:00 +3°C° 0 mm 2 mps 719 mmHg 78%
    21:00 +3°C° 0 mm 2 mps 718 mmHg 78%
    22:00 +2°C° 0 mm 2 mps 718 mmHg 79%
    23:00 +2°C° 0 mm 2 mps 718 mmHg 79%

    Day after tomorrow, 23 October, Monday

    Time Temperature Precipitation Wind Pressure Humidity
    00:00 +2°C° 0 mm 2 mps 717 mmHg 80%
    01:00 +2°C° 0 mm 2 mps 717 mmHg 80%
    02:00 +1°C° 0 mm 2 mps 717 mmHg 81%
    03:00 +1°C° 0 mm 2 mps 717 mmHg 81%
    04:00 +1°C° 0 mm 2 mps 716 mmHg 82%
    05:00 +1°C° 0 mm 2 mps 716 mmHg 82%
    06:00 +1°C° 0 mm 2 mps 716 mmHg 81%
    07:00 +2°C° 0 mm 1 mps 717 mmHg 81%
    08:00 +4°C° 0 mm 1 mps 717 mmHg 72%
    09:00 +6°C° 0 mm 1 mps 717 mmHg 62%
    10:00 +9°C° 0 mm 1 mps 717 mmHg 53%
    11:00 +10°C° 0 mm 1 mps 717 mmHg 50%
    12:00 +11°C° 0 mm 1 mps 716 mmHg 48%
    13:00 +12°C° 0 mm 1 mps 716 mmHg 45%
    14:00 +11°C° 0 mm 1 mps 716 mmHg 50%
    15:00 +10°C° 0 mm 1 mps 717 mmHg 55%
    16:00 +9°C° 0 mm 1 mps 717 mmHg 61%
    17:00 +8°C° 0 mm 1 mps 718 mmHg 65%
    18:00 +6°C° 0 mm 1 mps 718 mmHg 70%
    19:00 +5°C° 0 mm 1 mps 719 mmHg 75%
    20:00 +5°C° 0 mm 1 mps 720 mmHg 77%
    21:00 +4°C° 0 mm 1 mps 720 mmHg 79%
    22:00 +4°C° 0 mm 1 mps 721 mmHg 82%
    23:00 +4°C° 0 mm 1 mps 721 mmHg 84%

    24 October, Tuesday

    Time Temperature Precipitation Wind Pressure Humidity
    00:00 +3°C° 0 mm 1 mps 722 mmHg 87%
    01:00 +3°C° 0 mm 1 mps 722 mmHg 89%
    02:00 +3°C° 0 mm 1 mps 722 mmHg 90%
    03:00 +2°C° 0 mm 1 mps 722 mmHg 91%
    04:00 +2°C° 0 mm 1 mps 722 mmHg 92%
    05:00 +2°C° 0 mm 1 mps 723 mmHg 92%
    06:00 +2°C° 0 mm 1 mps 723 mmHg 93%
    07:00 +2°C° 0 mm 1 mps 723 mmHg 93%
    08:00 +4°C° 0 mm 1 mps 723 mmHg 82%
    09:00 +6°C° 0 mm 1 mps 724 mmHg 71%
    10:00 +8°C° 0 mm 1 mps 724 mmHg 60%
    11:00 +8°C° 0 mm 1 mps 723 mmHg 57%
    12:00 +9°C° 0 mm 1 mps 723 mmHg 54%
    13:00 +10°C° 0 mm 1 mps 722 mmHg 51%
    14:00 +9°C° 0 mm 1 mps 722 mmHg 55%
    15:00 +8°C° 0 mm 1 mps 722 mmHg 59%
    16:00 +7°C° 0 mm 1 mps 722 mmHg 64%
    17:00 +6°C° 0 mm 1 mps 722 mmHg 69%
    18:00 +4°C° 0 mm 1 mps 722 mmHg 73%
    19:00 +3°C° 0 mm 1 mps 723 mmHg 78%
    20:00 +2°C° 0 mm 0 mps 723 mmHg 79%
    21:00 +1°C° 0 mm 0 mps 723 mmHg 80%
    22:00 +1°C° 0 mm 0 mps 723 mmHg 81%
    23:00 +1°C° 0 mm 0 mps 723 mmHg 82%

    25 October, Wednesday

    Time Temperature Precipitation Wind Pressure Humidity
    00:00 +1°C° 0 mm 0 mps 723 mmHg 82%
    01:00 +1°C° 0 mm 0 mps 722 mmHg 83%
    02:00 +2°C° 0 mm 1 mps 722 mmHg 84%
    03:00 +1°C° 0 mm 1 mps 722 mmHg 84%
    04:00 +1°C° 0 mm 1 mps 722 mmHg 85%
    05:00 +1°C° 0 mm 1 mps 722 mmHg 86%
    06:00 +1°C° 0 mm 1 mps 722 mmHg 87%
    07:00 +1°C° 0 mm 1 mps 722 mmHg 87%
    08:00 +3°C° 0 mm 1 mps 721 mmHg 79%
    09:00 +6°C° 0 mm 1 mps 721 mmHg 71%
    10:00 +7°C° 0 mm 2 mps 721 mmHg 63%
    11:00 +8°C° 0 mm 2 mps 720 mmHg 60%
    12:00 +9°C° 0 mm 2 mps 720 mmHg 57%
    13:00 +10°C° 0 mm 2 mps 719 mmHg 54%
    14:00 +9°C° 0 mm 2 mps 719 mmHg 59%
    15:00 +9°C° 0 mm 1 mps 718 mmHg 63%
    16:00 +8°C° 0 mm 1 mps 718 mmHg 68%
    17:00 +6°C° 0 mm 1 mps 718 mmHg 73%
    18:00 +5°C° 0 mm 1 mps 718 mmHg 77%
    19:00 +4°C° 0 mm 1 mps 718 mmHg 82%
    20:00 +4°C° 0 mm 1 mps 718 mmHg 83%
    21:00 +3°C° 0 mm 1 mps 718 mmHg 84%
    22:00 +3°C° 0 mm 1 mps 718 mmHg 85%
    23:00 +3°C° 0 mm 1 mps 718 mmHg 86%

    26 October, Thursday

    Time Temperature Precipitation Wind Pressure Humidity
    00:00 +3°C° 0 mm 1 mps 717 mmHg 86%
    01:00 +2°C° 0 mm 1 mps 717 mmHg 87%
    02:00 +2°C° 0 mm 1 mps 717 mmHg 87%
    03:00 +2°C° 0 mm 1 mps 717 mmHg 87%
    04:00 +2°C° 0 mm 1 mps 716 mmHg 88%
    05:00 +2°C° 0 mm 1 mps 716 mmHg 88%
    06:00 +2°C° 0 mm 1 mps 716 mmHg 89%
    07:00 +2°C° 0 mm 1 mps 716 mmHg 89%
    08:00 +3°C° 0 mm 2 mps 716 mmHg 80%
    09:00 +5°C° 0 mm 2 mps 715 mmHg 71%
    10:00 +7°C° 0 mm 2 mps 715 mmHg 63%
    11:00 +8°C° 0 mm 2 mps 714 mmHg 59%
    12:00 +9°C° 0 mm 2 mps 713 mmHg 55%
    13:00 +10°C° 0 mm 3 mps 713 mmHg 51%
    14:00 +9°C° 0 mm 2 mps 712 mmHg 56%
    15:00 +8°C° 0 mm 2 mps 712 mmHg 61%
    16:00 +7°C° 0 mm 1 mps 712 mmHg 66%
    17:00 +6°C° 0 mm 1 mps 712 mmHg 71%
    18:00 +5°C° 0 mm 1 mps 712 mmHg 77%
    19:00 +4°C° 0 mm 1 mps 713 mmHg 83%
    20:00 +3°C° 0.1 mm 2 mps 713 mmHg 85%
    21:00 +3°C° 0.1 mm 2 mps 713 mmHg 86%
    22:00 +2°C° 0.1 mm 2 mps 714 mmHg 88%
    23:00 +1°C° 0.2 mm 3 mps 714 mmHg 85%
    Show more